TimePDT,TemperatureF,Dew PointF,Humidity,Sea Level PressureIn,VisibilityMPH,Wind Direction,Wind SpeedMPH,Gust SpeedMPH,PrecipitationIn,Events,Conditions,WindDirDegrees,DateUTC
12:55 AM,55.0,35.1,47,30.04,10.0,WNW,8.1,-,N/A,,Clear,290,2013-06-13 07:55:00
1:55 AM,55.0,35.1,47,30.03,10.0,WNW,13.8,-,N/A,,Clear,300,2013-06-13 08:55:00
2:55 AM,53.1,35.1,50,30.04,10.0,WNW,6.9,-,N/A,,Clear,290,2013-06-13 09:55:00
3:55 AM,50.0,36.0,59,30.04,10.0,NNW,5.8,-,N/A,,Clear,340,2013-06-13 10:55:00
4:55 AM,50.0,36.0,59,30.05,10.0,NNW,5.8,-,N/A,,Clear,330,2013-06-13 11:55:00
5:55 AM,51.1,35.1,54,30.05,10.0,NW,5.8,-,N/A,,Clear,310,2013-06-13 12:55:00
6:55 AM,54.0,36.0,51,30.05,10.0,WNW,3.5,-,N/A,,Clear,290,2013-06-13 13:55:00
7:55 AM,57.9,36.0,44,30.04,10.0,NW,15.0,-,N/A,,Clear,310,2013-06-13 14:55:00
8:55 AM,61.0,35.1,38,30.05,10.0,WNW,11.5,-,N/A,,Clear,300,2013-06-13 15:55:00
9:55 AM,63.0,34.0,34,30.04,10.0,NW,11.5,-,N/A,,Clear,310,2013-06-13 16:55:00
10:55 AM,64.9,34.0,32,30.04,10.0,West,9.2,-,N/A,,Clear,280,2013-06-13 17:55:00
11:55 AM,66.0,34.0,30,30.03,10.0,Variable,3.5,-,N/A,,Clear,0,2013-06-13 18:55:00
12:55 PM,68.0,33.1,27,30.02,10.0,Variable,3.5,-,N/A,,Clear,0,2013-06-13 19:55:00
1:55 PM,69.1,36.0,30,30.02,10.0,SW,13.8,-,N/A,,Clear,220,2013-06-13 20:55:00
2:55 PM,71.1,32.0,24,30.01,10.0,SSW,13.8,20.7,N/A,,Clear,200,2013-06-13 21:55:00
3:55 PM,71.1,32.0,24,30.00,10.0,NW,15.0,18.4,0.00,,Overcast,310,2013-06-13 22:55:00
4:55 PM,66.9,35.1,31,30.01,10.0,North,12.7,-,N/A,,Scattered Clouds,360,2013-06-13 23:55:00
5:55 PM,66.9,37.9,34,30.03,10.0,West,11.5,-,N/A,,Clear,260,2013-06-14 00:55:00
6:55 PM,68.0,35.1,30,30.03,10.0,WNW,19.6,-,N/A,,Clear,290,2013-06-14 01:55:00
7:55 PM,64.9,36.0,34,30.04,10.0,NW,23.0,27.6,N/A,,Clear,310,2013-06-14 02:55:00
8:55 PM,62.1,35.1,37,30.06,10.0,WNW,20.7,32.2,N/A,,Clear,290,2013-06-14 03:55:00
9:55 PM,60.1,35.1,39,30.08,10.0,WNW,19.6,23.0,N/A,,Clear,290,2013-06-14 04:55:00
10:55 PM,57.9,36.0,44,30.09,10.0,WNW,13.8,-,N/A,,Clear,290,2013-06-14 05:55:00
11:55 PM,57.9,36.0,44,30.10,10.0,WNW,10.4,20.7,N/A,,Clear,300,2013-06-14 06:55:00